Weather History for Menominee, MI

Change the Weather History Date:

Friday, November 30, 2012

  Actual Average Record
Temperature  
Mean Temperature 32 °F -  
Max Temperature 37 °F 38 °F 60 °F (1998)
Min Temperature 26 °F 22 °F -5 °F (1976)
Degree Days  
Heating Degree Days 34    
Moisture  
Dew Point 29 °F    
Average Humidity 87    
Maximum Humidity 100    
Minimum Humidity 75    
Precipitation  
Precipitation 0.00 in - - ()
Sea Level Pressure  
Sea Level Pressure 30.24 in    
Wind  
Wind Speed 13 mph (East)    
Max Wind Speed 21 mph    
Max Gust Speed 30 mph    
Visibility 10 miles    
Events      
Averages and records for this station are not official NWS values.
T = Trace of Precipitation, MM = Missing Value Source: NWS Daily Summary

Daily Weather History Graph

Daily Weather History Graph

Search for Another Location

Airport:

Trip Planner

Search our weather history database for the weather conditions in past years. The results will help you decide how hot, cold, wet, or windy it might be!

Date:

Astronomy

Nov. 30, 2012 Rise Set
Actual Time 7:08 AM CST 4:10 PM CST
Civil Twilight 6:35 AM CST 4:43 PM CST
Nautical Twilight 5:58 AM CST 5:20 PM CST
Astronomical Twilight 5:23 AM CST 5:55 PM CST
Moon 6:05 PM CST (11/30) 8:39 AM CST (11/30)
Length of Visible Light 10h 08m
Length of Day
9h 01m
Waning Gibbous, 96% of the Moon is Illuminated
Nov 30
Waning Gibbous
Dec 6
Last Quarter
Dec 13
New
Dec 19
First Quarter
Dec 28
Full

Hourly Weather History & Observations

Time (CST) Temp. Windchill Dew Point Humidity Pressure Visibility Wind Dir Wind Speed Gust Speed Precip Events Conditions
12:15 AM 30.2 °F 18.1 °F 26.6 °F 86% 30.25 in 10.0 mi NE 18.4 mph 24.2 mph N/A   Overcast
12:35 AM 30.2 °F 18.5 °F 26.6 °F 86% 30.25 in 10.0 mi NE 17.3 mph 25.3 mph N/A   Overcast
12:55 AM 30.2 °F 18.5 °F 26.6 °F 86% 30.25 in 10.0 mi ENE 17.3 mph - N/A   Overcast
1:15 AM 30.2 °F 18.1 °F 26.6 °F 86% 30.25 in 10.0 mi ENE 18.4 mph 25.3 mph N/A   Overcast
1:35 AM 30.2 °F 18.1 °F 26.6 °F 86% 30.25 in 10.0 mi ENE 18.4 mph 25.3 mph N/A   Overcast
1:55 AM 30.2 °F 18.5 °F 26.6 °F 86% 30.25 in 10.0 mi ENE 17.3 mph 27.6 mph N/A   Overcast
2:15 AM 30.2 °F 18.9 °F 26.6 °F 86% 30.25 in 10.0 mi ENE 16.1 mph 24.2 mph N/A   Overcast
2:35 AM 30.2 °F 17.4 °F 26.6 °F 86% 30.25 in 10.0 mi ENE 20.7 mph 27.6 mph N/A   Overcast
2:55 AM 30.2 °F 18.1 °F 26.6 °F 86% 30.25 in 10.0 mi NE 18.4 mph 25.3 mph N/A   Overcast
3:15 AM 28.4 °F 18.0 °F 24.8 °F 86% 30.25 in 10.0 mi NE 12.7 mph - N/A   Overcast
3:35 AM 30.2 °F 18.9 °F 26.6 °F 86% 30.23 in 10.0 mi ENE 16.1 mph 21.9 mph N/A   Overcast
3:55 AM 30.2 °F 18.5 °F 26.6 °F 86% 30.22 in 10.0 mi ENE 17.3 mph 29.9 mph N/A   Overcast
4:15 AM 32.0 °F 20.5 °F 28.4 °F 87% 30.22 in 10.0 mi ENE 18.4 mph 26.5 mph N/A   Overcast
4:35 AM 32.0 °F 20.8 °F 26.6 °F 80% 30.22 in 10.0 mi ENE 17.3 mph 28.8 mph N/A   Overcast
4:55 AM 32.0 °F 19.8 °F 28.4 °F 87% 30.23 in 10.0 mi East 20.7 mph 25.3 mph N/A   Overcast
5:15 AM 33.8 °F 24.3 °F 28.4 °F 81% 30.23 in 10.0 mi East 13.8 mph 25.3 mph N/A   Overcast
5:35 AM 33.8 °F 23.9 °F 28.4 °F 81% 30.23 in 10.0 mi East 15.0 mph 19.6 mph N/A   Overcast
5:55 AM 33.8 °F 25.8 °F 28.4 °F 81% 30.23 in 10.0 mi NNE 10.4 mph 19.6 mph N/A   Overcast
6:15 AM 26.6 °F 17.5 °F 23.0 °F 86% 30.24 in 10.0 mi North 9.2 mph - N/A   Overcast
6:35 AM 26.6 °F 16.2 °F 23.0 °F 86% 30.23 in 5.0 mi NNE 11.5 mph - N/A   Overcast
6:55 AM 26.6 °F 16.8 °F 24.8 °F 93% 30.24 in 10.0 mi North 10.4 mph - N/A   Overcast
7:15 AM 26.6 °F 16.8 °F 26.6 °F 100% 30.24 in 10.0 mi NNE 10.4 mph - N/A   Overcast
7:35 AM 26.6 °F 17.5 °F 24.8 °F 93% 30.25 in 10.0 mi North 9.2 mph - N/A   Overcast
7:55 AM 26.6 °F 18.2 °F 23.0 °F 86% 30.25 in 10.0 mi North 8.1 mph - N/A   Overcast
8:15 AM 26.6 °F 18.2 °F 24.8 °F 93% 30.26 in 10.0 mi North 8.1 mph - N/A   Overcast
8:35 AM 26.6 °F 16.8 °F 24.8 °F 93% 30.27 in 10.0 mi North 10.4 mph - N/A   Overcast
8:55 AM 28.4 °F 19.7 °F 28.4 °F 100% 30.26 in 10.0 mi North 9.2 mph - N/A   Overcast
9:15 AM 30.2 °F 20.8 °F 26.6 °F 86% 30.26 in 10.0 mi East 11.5 mph - N/A   Overcast
9:35 AM 28.4 °F 21.2 °F 24.8 °F 86% 30.27 in 8.0 mi North 6.9 mph - N/A   Overcast
9:55 AM 28.4 °F 24.6 °F 26.6 °F 93% 30.27 in 5.0 mi North 3.5 mph - N/A   Overcast
10:15 AM 28.4 °F 24.6 °F 26.6 °F 93% 30.26 in 6.0 mi NNE 3.5 mph - N/A   Overcast
10:35 AM 30.2 °F 20.8 °F 28.4 °F 93% 30.25 in 8.0 mi East 11.5 mph 17.3 mph N/A   Overcast
10:55 AM 33.8 °F 24.3 °F 30.2 °F 87% 30.24 in 10.0 mi ESE 13.8 mph - N/A   Overcast
11:15 AM 33.8 °F 25.3 °F 30.2 °F 87% 30.24 in 10.0 mi East 11.5 mph 19.6 mph N/A   Overcast
11:35 AM 33.8 °F 26.4 °F 30.2 °F 87% 30.23 in 10.0 mi East 9.2 mph - N/A   Overcast
11:55 AM 33.8 °F 24.8 °F 30.2 °F 87% 30.23 in 10.0 mi East 12.7 mph - N/A   Overcast
12:15 PM 33.8 °F 25.8 °F 30.2 °F 87% 30.24 in 10.0 mi East 10.4 mph 17.3 mph N/A   Overcast
12:35 PM 33.8 °F 25.8 °F 30.2 °F 87% 30.23 in 10.0 mi East 10.4 mph - N/A   Overcast
12:55 PM 33.8 °F 24.8 °F 30.2 °F 87% 30.23 in 10.0 mi East 12.7 mph - N/A   Overcast
1:15 PM 33.8 °F 25.8 °F 30.2 °F 87% 30.23 in 10.0 mi ESE 10.4 mph - N/A   Overcast
1:35 PM 35.6 °F 27.1 °F 30.2 °F 81% 30.23 in 10.0 mi ESE 12.7 mph - N/A   Overcast
1:55 PM 33.8 °F 25.8 °F 30.2 °F 87% 30.23 in 10.0 mi East 10.4 mph - N/A   Overcast
2:15 PM 33.8 °F 25.3 °F 30.2 °F 87% 30.23 in 10.0 mi East 11.5 mph - N/A   Overcast
2:35 PM 33.8 °F 25.8 °F 30.2 °F 87% 30.23 in 10.0 mi East 10.4 mph - N/A   Overcast
2:55 PM 35.6 °F 27.5 °F 30.2 °F 81% 30.23 in 10.0 mi ESE 11.5 mph - N/A   Overcast
3:15 PM 35.6 °F 28.6 °F 30.2 °F 81% 30.25 in 10.0 mi East 9.2 mph - N/A   Overcast
3:35 PM 35.6 °F 30.7 °F 28.4 °F 75% 30.25 in 10.0 mi East 5.8 mph - N/A   Overcast
3:55 PM 35.6 °F 29.9 °F 30.2 °F 81% 30.26 in 10.0 mi East 6.9 mph - N/A   Overcast
4:15 PM 35.6 °F 29.9 °F 30.2 °F 81% 30.26 in 10.0 mi East 6.9 mph - N/A   Overcast
4:35 PM 35.6 °F 28.0 °F 30.2 °F 81% 30.25 in 10.0 mi ESE 10.4 mph - N/A   Overcast
4:55 PM 35.6 °F 28.0 °F 30.2 °F 81% 30.25 in 10.0 mi East 10.4 mph - N/A   Overcast
5:15 PM 35.6 °F 29.2 °F 30.2 °F 81% 30.26 in 10.0 mi East 8.1 mph - N/A   Overcast
5:35 PM 35.6 °F 29.2 °F 30.2 °F 81% 30.27 in 10.0 mi East 8.1 mph - N/A   Overcast
5:55 PM 35.6 °F 29.2 °F 30.2 °F 81% 30.26 in 10.0 mi East 8.1 mph - N/A   Overcast
6:15 PM 35.6 °F 29.9 °F 30.2 °F 81% 30.27 in 10.0 mi East 6.9 mph - N/A   Overcast
6:35 PM 35.6 °F 27.5 °F 30.2 °F 81% 30.24 in 10.0 mi ESE 11.5 mph - N/A   Overcast
6:55 PM 35.6 °F 27.5 °F 33.8 °F 93% 30.23 in 10.0 mi ESE 11.5 mph - N/A   Overcast
7:15 PM 35.6 °F 27.5 °F 30.2 °F 81% 30.23 in 10.0 mi ESE 11.5 mph - N/A   Overcast
7:35 PM 35.6 °F 28.6 °F 32.0 °F 87% 30.24 in 10.0 mi ESE 9.2 mph - N/A   Overcast
8:15 PM 35.6 °F 28.0 °F 33.8 °F 93% 30.22 in 10.0 mi SE 10.4 mph - N/A   Overcast
8:35 PM 35.6 °F 27.1 °F 32.0 °F 87% 30.21 in 10.0 mi SE 12.7 mph - N/A   Overcast
8:55 PM 35.6 °F 28.0 °F 33.8 °F 93% 30.21 in 10.0 mi SE 10.4 mph - N/A   Overcast
9:15 PM 35.6 °F 27.5 °F 32.0 °F 87% 30.23 in 10.0 mi SE 11.5 mph - N/A   Overcast
9:35 PM 35.6 °F 28.0 °F 32.0 °F 87% 30.23 in 9.0 mi SE 10.4 mph - N/A   Overcast
9:55 PM 35.6 °F 28.0 °F 33.8 °F 93% 30.22 in 9.0 mi SE 10.4 mph - N/A   Overcast
10:15 PM 35.6 °F 28.6 °F 33.8 °F 93% 30.23 in 8.0 mi SE 9.2 mph - N/A   Overcast
10:35 PM 37.4 °F 31.4 °F 33.8 °F 87% 30.22 in 8.0 mi SE 8.1 mph - N/A   Overcast
10:55 PM 37.4 °F 31.4 °F 33.8 °F 87% 30.23 in 8.0 mi SE 8.1 mph - N/A   Overcast
11:15 PM 37.4 °F 30.8 °F 33.8 °F 87% 30.22 in 8.0 mi SSE 9.2 mph - N/A   Overcast
11:35 PM 37.4 °F 32.1 °F 33.8 °F 87% 30.23 in 8.0 mi SE 6.9 mph - N/A   Overcast
11:55 PM 37.4 °F 32.1 °F 33.8 °F 87% 30.23 in 7.0 mi SSE 6.9 mph - N/A   Overcast